Regional Weather Roundup
Issued by NWS Columbia, SC

Home | Current Version | Previous Version | Text Only | Print | Product List | Glossary On
Versions: 1 2 3 4 5 6 7 8 9 10 11 12 13 14 15 16 17 18 19 20 21 22 23 24 25 26 27 28 29 30 31 32 33 34 35 36 37 38 39 40 41 42 43 44 45 46 47 48 49 50
000
ASUS42 KCAE 212110
RWRCAE
REGIONAL WEATHER ROUNDUP
NATIONAL WEATHER SERVICE COLUMBIA SC
500 PM EDT SAT APR 21 2018

NOTE: "FAIR" INDICATES FEW OR NO CLOUDS BELOW 12,000 FEET WITH NO
SIGNIFICANT WEATHER AND/OR OBSTRUCTIONS TO VISIBILITY.

NOT ALL STATIONS ARE QUALITY CONTROLLED BY THE NATIONAL
WEATHER SERVICE. USE DATA WITH CAUTION...ESPECIALLY
DEWPOINT OBSERVATIONS.

SCZ001>056-GAZ040-063>065-077-212200-
...UPSTATE SOUTH CAROLINA...

CITY           SKY/WX    TMP DP  RH WIND       PRES   REMARKS
ANDERSON       FAIR      70  34  26 S6        30.28F
LIBERTY        FAIR      69  31  24 S3        30.28F
SPARTANBURG    FAIR      70  30  23 CALM      30.28F
CLEMSON        FAIR      68  33  27 CALM      30.30F
GREENVILLE     FAIR      70  32  24 E6        30.30F
GREENWOOD      FAIR      70  36  28 S8        30.30F
GREER          FAIR      69  30  23 S7        30.30F
ROCK HILL      FAIR      70  34  26 VRB3      30.30F
CHESTER        FAIR      70  30  23 N7        30.30F
LAURENS        FAIR      70  32  24 E3        30.28F


...CENTRAL SOUTH CAROLINA...

CITY           SKY/WX    TMP DP  RH WIND       PRES   REMARKS
COLUMBIA APT   FAIR      73  33  23 VRB6      30.28F
COLUMBIA OWENS FAIR      74  30  19 E7        30.30F
MCENTIRE ANGB  FAIR      72  31  22 NW3       30.29F
ORANGEBURG     CLOUDY    71  45  39 VRB6      30.28F
SUMTER SHAW    FAIR      73  37  27 CALM      30.27F
NEWBERRY       FAIR      72  36  26 E6        30.31F
AIKEN          FAIR      72  32  23 E7        30.31F
BARNWELL       FAIR      72  46  40 CALM      30.27F
MANNING        FAIR      68  41  37 SE3       30.30F
CAMDEN         FAIR      72  30  21 E6        30.31S
LANCASTER      FAIR      70  28  21 S3        30.30F
WINNSBORO      FAIR      72  32  23 SE5       30.29F


...EASTERN AND COASTAL SOUTH CAROLINA...

CITY           SKY/WX    TMP DP  RH WIND       PRES   REMARKS
MYRTLE BEACH   FAIR      64  48  56 E14       30.35F
N MYRTLE BCH   FAIR      64  47  53 E9G20     30.34F
CONWAY         FAIR      68  43  40 SE7       30.33S
MARION         FAIR      70  36  28 S5        30.31F
HARTSVILLE     FAIR      72  32  23 SE8       30.30F
FLORENCE       FAIR      72  33  24 SE9       30.31F
DARLINGTON     FAIR      71  35  26 E10       30.32F
CHARLESTON APT FAIR      68  50  52 E16       30.31F
MOUNT PLEASANT FAIR      64  52  63 E8        30.33S
WALTERBORO     FAIR      70  50  49 SE10      30.30F
BEAUFORT       PTSUNNY   70  54  56 E16G23    30.30


...EASTERN GEORGIA...

CITY           SKY/WX    TMP DP  RH WIND       PRES   REMARKS
AUGUSTA BUSH F PTSUNNY   74  40  29 S7        30.26F
AUGUSTA DANIEL FAIR      75  36  24 E7        30.27F
THOMSON        FAIR      72  31  22 SE9       30.32S
WASHINGTON     FAIR      70  37  30 SE8       30.28S
CLAXTON        CLOUDY    71  56  60 E6G17     30.27F
SYLVANIA       CLOUDY    72  57  60 SE7       30.28F
STATESBORO     CLOUDY    73  50  44 SE7       30.27F
SAVANNAH       PTSUNNY   71  54  54 E20       30.28F


...SOUTHERN NORTH CAROLINA...

CITY           SKY/WX    TMP DP  RH WIND       PRES   REMARKS
CHARLOTTE      FAIR      70  32  24 SW7       30.31F
MONROE         FAIR      69  32  25 VRB6      30.30F
WADESBORO      FAIR      71  34  25 SE7       30.30F
ROCKINGHAM     FAIR      69  34  27 S3        30.31F
RUTHERFORDTON  FAIR      68  32  26 S7        30.30F
ASHEVILLE      FAIR      66  29  24 SE8       30.29F

$$



USA.gov is the U.S. government's official web portal to all federal, state and local government web resources and services.